FW6531 Weather Reports


Display with metric or nautical units.
time (UTC)temp
F
wind
direction
speed
MPH
gust
MPH
rain 1hr
in
rain 24hr
in
rain mn
in
humidity
%
barometer
mb
20260905184024 70 5 5.0 12.0 0.00 0.01 0.01 64 1009.8
20260905183521 71 348 4.0 11.0 0.00 0.01 0.01 64 1009.9
20260905183019 71 17 4.0 11.0 0.00 0.01 0.01 64 1009.8
20260905182519 71 297 3.0 11.0 0.00 0.01 0.01 66 1009.9
20260905182019 71 355 3.0 12.0 0.00 0.01 0.01 66 1010.0
20260905181520 71 42 4.0 12.0 0.00 0.01 0.01 63 1010.0
20260905181017 70 327 3.0 11.0 0.00 0.01 0.01 66 1010.0
20260905180518 70 42 4.0 11.0 0.00 0.01 0.01 66 1009.9
20260905180017 70 355 4.0 11.0 0.00 0.01 0.01 67 1010.0
20260905175517 69 355 4.0 11.0 0.00 0.01 0.01 68 1009.9
20260905175017 70 344 3.0 10.0 0.00 0.01 0.01 66 1009.9
20260905174521 70 29 4.0 14.0 0.00 0.01 0.01 66 1010.1
20260905174016 70 28 5.0 14.0 0.00 0.01 0.01 65 1010.2
20260905173516 70 45 4.0 12.0 0.00 0.01 0.01 65 1010.1
20260905173015 71 21 2.0 11.0 0.00 0.01 0.01 67 1010.0
20260905172515 70 38 4.0 11.0 0.00 0.01 0.01 68 1010.2
20260905172014 70 38 4.0 16.0 0.00 0.01 0.01 69 1010.1
20260905171525 70 360 7.0 16.0 0.00 0.01 0.01 67 1010.1
20260905171012 70 19 3.0 13.0 0.00 0.01 0.01 70 1010.1
20260905170512 70 42 6.0 13.0 0.00 0.01 0.01 69 1010.0
20260905170014 69 342 5.0 12.0 0.00 0.01 0.01 71 1010.1
20260905165511 69 28 5.0 10.0 0.00 0.01 0.01 73 1010.1
20260905165015 68 355 4.0 11.0 0.00 0.01 0.01 73 1010.2
20260905164510 68 323 4.0 11.0 0.00 0.01 0.01 74 1010.2
20260905164009 68 351 3.0 10.0 0.00 0.01 0.01 75 1010.2
20260905163511 68 17 4.0 10.0 0.00 0.01 0.01 75 1010.2
20260905163009 68 346 2.0 8.0 0.00 0.01 0.01 78 1010.3
20260905162509 68 33 2.0 6.0 0.00 0.01 0.01 78 1010.2
20260905162009 68 43 2.0 9.0 0.00 0.01 0.01 80 1010.2
20260905161510 68 34 2.0 10.0 0.01 0.01 0.01 80 1010.2
20260905161009 67 9 3.0 10.0 0.01 0.01 0.01 80 1010.2
20260905160507 67 23 3.0 10.0 0.01 0.01 0.01 81 1010.3
20260905160007 67 333 3.0 10.0 0.01 0.01 0.01 81 1010.3
20260905155509 67 329 3.0 9.0 0.01 0.01 0.01 81 1010.2
20260905155006 67 348 1.0 8.0 0.01 0.01 0.01 83 1010.2
20260905154506 67 20 5.0 8.0 0.01 0.01 0.01 81 1010.2
20260905154009 67 42 4.0 8.0 0.01 0.01 0.01 82 1010.1
20260905153506 67 360 2.0 8.0 0.01 0.01 0.01 82 1010.2
20260905153005 67 338 2.0 10.0 0.01 0.01 0.01 82 1010.1
20260905152507 67 17 1.0 10.0 0.01 0.01 0.01 80 1010.1
20260905152005 68 336 5.0 10.0 0.01 0.01 0.01 77 1010.2
20260905151504 69 44 4.0 11.0 0.00 0.00 0.00 74 1010.1
20260905151007 69 360 2.0 12.0 0.00 0.00 0.00 72 1009.9
20260905150502 70 339 7.0 12.0 0.00 0.00 0.00 72 1009.9
20260905150001 69 36 4.0 9.0 0.00 0.00 0.00 74 1009.8
20260905145604 69 331 2.0 11.0 0.00 0.00 0.00 73 1009.9
20260905145100 69 32 4.0 11.0 0.00 0.00 0.00 73 1009.8
20260905144602 69 41 2.0 13.0 0.00 0.00 0.00 75 1009.9
20260905144103 69 330 5.0 13.0 0.00 0.00 0.00 75 1009.9
20260905143557 69 38 2.0 12.0 0.00 0.00 0.00 76 1009.9
20260905143104 69 321 6.0 12.0 0.00 0.00 0.00 76 1009.8
20260905142555 68 349 4.0 12.0 0.00 0.00 0.00 76 1009.8
20260905142055 68 37 6.0 12.0 0.00 0.00 0.00 78 1009.9
20260905141553 68 5 5.0 10.0 0.00 0.00 0.00 78 1009.7
20260905141052 67 14 5.0 10.0 0.00 0.00 0.00 79 1009.7
20260905140551 66 28 2.0 9.0 0.00 0.00 0.00 80 1009.7
20260905140052 66 25 3.0 9.0 0.00 0.00 0.00 81 1009.7
20260905135551 66 346 3.0 11.0 0.00 0.00 0.00 80 1009.7
20260905135052 66 30 4.0 11.0 0.00 0.00 0.00 80 1009.6
20260905134550 66 29 4.0 14.0 0.00 0.00 0.00 80 1009.5
20260905134050 65 14 6.0 14.0 0.00 0.00 0.00 81 1009.5
20260905133551 65 323 4.0 14.0 0.00 0.00 0.00 80 1009.6
20260905133050 65 360 5.0 12.0 0.00 0.00 0.00 81 1009.4
20260905132549 65 17 2.0 11.0 0.00 0.00 0.00 82 1009.3
20260905132048 65 335 4.0 13.0 0.00 0.00 0.00 82 1009.3
20260905131548 65 355 5.0 15.0 0.00 0.00 0.00 82 1009.3
20260905131047 65 347 4.0 15.0 0.00 0.00 0.00 81 1009.2
20260905130551 65 5 5.0 11.0 0.00 0.00 0.00 81 1009.2
20260905130049 65 355 2.0 10.0 0.00 0.00 0.00 81 1009.1
20260905125546 65 19 5.0 12.0 0.00 0.00 0.00 81 1009.1
20260905125047 65 25 5.0 12.0 0.00 0.00 0.00 81 1009.0
20260905124546 65 11 4.0 13.0 0.00 0.00 0.00 81 1009.1
20260905124047 65 5 4.0 13.0 0.00 0.00 0.00 81 1009.0
20260905123545 65 351 6.0 12.0 0.00 0.00 0.00 81 1008.9
20260905123044 65 19 5.0 13.0 0.00 0.00 0.00 81 1009.0
20260905122546 65 336 5.0 10.0 0.00 0.00 0.00 81 1009.0
20260905122044 65 317 4.0 13.0 0.00 0.00 0.00 81 1009.0
20260905121544 65 338 4.0 13.0 0.00 0.00 0.00 81 1008.8
20260905121043 65 26 5.0 10.0 0.00 0.00 0.00 82 1008.8
20260905120542 64 28 4.0 10.0 0.00 0.00 0.00 82 1008.8
20260905120049 64 360 5.0 12.0 0.00 0.00 0.00 82 1008.7
20260905115542 64 340 6.0 12.0 0.00 0.00 0.00 82 1008.7
20260905115042 64 343 6.0 14.0 0.00 0.00 0.00 83 1008.8
20260905114543 64 338 4.0 14.0 0.00 0.00 0.00 83 1008.7
20260905114040 64 344 4.0 11.0 0.00 0.00 0.00 84 1008.7
20260905113539 64 5 4.0 10.0 0.00 0.00 0.00 84 1008.8
20260905113038 63 5 3.0 12.0 0.00 0.00 0.00 83 1008.7
20260905112538 63 355 5.0 12.0 0.00 0.00 0.00 84 1008.6
20260905112037 63 321 3.0 9.0 0.00 0.00 0.00 84 1008.6
20260905111540 63 40 3.0 11.0 0.00 0.00 0.00 84 1008.5
20260905111034 63 323 4.0 11.0 0.00 0.00 0.00 84 1008.5
20260905110533 63 348 4.0 11.0 0.00 0.00 0.00 84 1008.4
20260905110031 63 5 5.0 13.0 0.00 0.00 0.00 84 1008.5
20260905105530 63 21 5.0 13.0 0.00 0.00 0.00 84 1008.3
20260905105029 63 19 6.0 14.0 0.00 0.00 0.00 84 1008.2
20260905104527 63 327 5.0 11.0 0.00 0.00 0.00 84 1008.2
20260905104026 63 11 5.0 11.0 0.00 0.00 0.00 84 1008.0
20260905103529 63 316 4.0 10.0 0.00 0.00 0.00 84 1008.0
20260905103026 63 332 5.0 11.0 0.00 0.00 0.00 84 1008.0
20260905102524 63 330 4.0 11.0 0.00 0.00 0.00 84 1007.9
20260905102024 63 12 5.0 10.0 0.00 0.00 0.00 85 1008.0
20260905101522 63 21 4.0 10.0 0.00 0.00 0.00 85 1008.0
20260905101021 63 30 4.0 11.0 0.00 0.00 0.00 85 1007.9
20260905100521 63 360 4.0 11.0 0.00 0.00 0.00 85 1007.8
20260905100023 63 5 3.0 9.0 0.00 0.00 0.00 85 1007.8
20260905095523 63 355 4.0 9.0 0.00 0.00 0.00 86 1007.8
20260905095021 63 350 4.0 9.0 0.00 0.00 0.00 86 1007.7
20260905094532 63 5 3.0 8.0 0.00 0.00 0.00 86 1007.7
20260905094020 63 351 2.0 9.0 0.00 0.00 0.00 85 1007.7
20260905093519 63 355 3.0 9.0 0.00 0.00 0.00 85 1007.7
20260905093020 63 355 3.0 11.0 0.00 0.00 0.00 85 1007.7
20260905092519 63 327 5.0 12.0 0.00 0.00 0.00 85 1007.6
20260905092023 63 15 4.0 12.0 0.00 0.00 0.00 86 1007.7
20260905091518 63 5 5.0 12.0 0.00 0.00 0.00 86 1007.7
20260905091017 63 338 4.0 7.0 0.00 0.00 0.00 86 1007.7
20260905090517 63 28 3.0 10.0 0.00 0.00 0.00 86 1007.6
20260905090019 63 20 3.0 9.0 0.00 0.00 0.00 87 1007.6
20260905085516 63 328 3.0 9.0 0.00 0.00 0.00 87 1007.6
20260905085018 63 317 2.0 8.0 0.00 0.00 0.00 87 1007.6
20260905084515 63 302 3.0 8.0 0.00 0.00 0.00 87 1007.5
20260905084016 63 335 3.0 10.0 0.00 0.00 0.00 87 1007.5
20260905083516 63 13 2.0 5.0 0.00 0.00 0.00 87 1007.4
20260905083013 63 332 1.0 6.0 0.00 0.00 0.00 86 1007.4
20260905082514 63 16 1.0 6.0 0.00 0.00 0.00 86 1007.4
20260905082013 63 334 1.0 4.0 0.00 0.00 0.00 86 1007.4
20260905081511 63 315 0.0 4.0 0.00 0.00 0.00 86 1007.4
20260905081010 63 350 1.0 4.0 0.00 0.00 0.00 85 1007.2
20260905080513 63 328 0.0 4.0 0.00 0.00 0.00 85 1007.3
20260905080009 63 341 1.0 4.0 0.00 0.00 0.00 85 1007.3
20260905075509 63 360 1.0 6.0 0.00 0.00 0.00 85 1007.2
20260905075007 63 336 2.0 6.0 0.00 0.00 0.00 85 1007.2
20260905074507 64 336 2.0 5.0 0.00 0.00 0.00 84 1007.2
20260905074006 64 355 1.0 3.0 0.00 0.00 0.00 83 1007.1
20260905073507 64 360 1.0 3.0 0.00 0.00 0.00 83 1007.2
20260905073005 64 313 1.0 6.0 0.00 0.00 0.00 83 1007.1
20260905072505 64 334 0.0 6.0 0.00 0.00 0.00 83 1007.1
20260905072004 64 321 1.0 6.0 0.00 0.00 0.00 83 1007.0
20260905071504 64 316 2.0 8.0 0.00 0.00 0.00 82 1007.0
20260905071003 64 342 3.0 8.0 0.00 0.00 0.00 82 1007.0
20260905070603 65 294 2.0 8.0 0.00 0.00 0.00 82 1007.1
20260905070004 65 286 3.0 9.0 0.00 0.00 0.00 82 1007.0
20260905065501 65 342 3.0 9.0 0.00 0.00 0.00 81 1007.0
20260905065000 65 334 4.0 9.0 0.00 0.00 0.00 81 1007.0
20260905064600 65 319 3.0 9.0 0.00 0.00 0.00 81 1007.0
20260905064059 65 294 2.0 11.0 0.00 0.00 0.00 81 1006.9
20260905063559 65 313 4.0 12.0 0.00 0.00 0.00 81 1006.9
20260905063100 65 326 3.0 12.0 0.00 0.00 0.00 81 1006.8
20260905062558 65 312 6.0 12.0 0.00 0.00 0.00 80 1006.8
20260905062057 65 336 6.0 12.0 0.00 0.00 0.00 80 1006.9
20260905061605 66 302 3.0 10.0 0.00 0.00 0.00 80 1007.0
20260905061059 66 329 3.0 10.0 0.00 0.00 0.00 80 1006.8
20260905060556 66 304 4.0 13.0 0.00 0.00 0.00 80 1006.9
20260905060105 66 332 3.0 13.0 0.00 0.00 0.00 80 1007.0
20260905055555 66 337 5.0 11.0 0.00 0.00 0.00 80 1006.9
20260905055054 66 5 3.0 10.0 0.00 0.00 0.00 80 1006.9
20260905054601 66 311 3.0 9.0 0.00 0.00 0.00 80 1006.9
20260905054054 66 306 4.0 10.0 0.00 0.00 0.00 79 1007.0
20260905053553 66 315 6.0 13.0 0.00 0.00 0.00 79 1007.1
20260905053051 66 319 4.0 13.0 0.00 0.00 0.00 79 1007.0
20260905052549 66 316 4.0 11.0 0.00 0.00 0.00 79 1007.0
20260905052049 66 317 4.0 11.0 0.00 0.00 0.00 79 1007.2
20260905051604 66 294 4.0 10.0 0.00 0.00 0.00 79 1007.2
20260905051051 67 314 3.0 11.0 0.00 0.00 0.00 79 1007.1
20260905050546 67 312 4.0 11.0 0.00 0.00 0.00 78 1007.2
20260905050049 67 327 3.0 9.0 0.00 0.00 0.00 78 1007.1
20260905045545 67 300 4.0 9.0 0.00 0.00 0.00 78 1007.1
20260905045045 67 333 2.0 6.0 0.00 0.00 0.00 77 1007.2
20260905044545 67 321 2.0 9.0 0.00 0.00 0.00 77 1007.2
20260905044044 67 317 4.0 9.0 0.00 0.00 0.00 77 1007.2
20260905043543 67 338 2.0 6.0 0.00 0.00 0.00 77 1007.1
20260905043043 67 298 2.0 8.0 0.00 0.00 0.00 77 1007.0
20260905042546 67 322 1.0 10.0 0.00 0.00 0.00 77 1007.1
20260905042042 67 351 3.0 10.0 0.00 0.00 0.00 77 1007.1
20260905041541 67 299 2.0 11.0 0.00 0.00 0.00 77 1007.1
20260905041039 67 338 4.0 9.0 0.00 0.00 0.00 76 1007.1
20260905040539 67 294 3.0 10.0 0.00 0.00 0.00 76 1007.1
20260905040038 67 311 4.0 10.0 0.00 0.00 0.00 76 1007.1
20260905035537 68 305 4.0 10.0 0.00 0.00 0.00 76 1007.1
20260905035038 68 300 3.0 9.0 0.00 0.00 0.00 76 1007.2
20260905034538 68 309 2.0 8.0 0.00 0.00 0.00 76 1007.2
20260905034037 68 319 1.0 9.0 0.00 0.00 0.00 75 1007.2
20260905033537 68 306 4.0 9.0 0.00 0.00 0.00 75 1007.2
20260905033047 68 323 1.0 6.0 0.00 0.00 0.00 75 1007.2
20260905032538 68 326 2.0 10.0 0.00 0.00 0.00 75 1007.3
20260905032037 68 317 2.0 10.0 0.00 0.00 0.00 74 1007.3
20260905031542 68 314 3.0 9.0 0.00 0.00 0.00 74 1007.3
20260905031037 68 304 2.0 9.0 0.00 0.00 0.00 74 1007.3
20260905030636 69 319 2.0 7.0 0.00 0.00 0.00 74 1007.3
20260905030036 69 311 2.0 9.0 0.00 0.00 0.00 73 1007.5
20260905025539 69 311 3.0 10.0 0.00 0.00 0.00 73 1007.4
20260905025036 69 304 3.0 10.0 0.00 0.00 0.00 73 1007.3
20260905024556 69 9 2.0 8.0 0.00 0.00 0.00 72 1007.3
20260905024038 69 312 3.0 8.0 0.00 0.00 0.00 72 1007.3
20260905023537 69 338 2.0 8.0 0.00 0.00 0.00 72 1007.3
20260905023035 69 313 3.0 8.0 0.00 0.00 0.00 71 1007.3
20260905022534 70 294 2.0 9.0 0.00 0.00 0.00 71 1007.3
20260905022135 70 355 2.0 9.0 0.00 0.00 0.00 71 1007.5
20260905021533 70 300 3.0 9.0 0.00 0.00 0.00 71 1007.5
20260905021033 70 311 2.0 9.0 0.00 0.00 0.00 70 1007.5
20260905020533 70 338 1.0 8.0 0.00 0.00 0.00 70 1007.5
20260905020035 70 325 2.0 8.0 0.00 0.00 0.00 70 1007.4
20260905015533 70 270 2.0 6.0 0.00 0.00 0.00 69 1007.5
20260905015033 70 296 2.0 9.0 0.00 0.00 0.00 69 1007.5
20260905014533 71 279 3.0 9.0 0.00 0.00 0.00 69 1007.5
20260905014034 71 311 4.0 9.0 0.00 0.00 0.00 69 1007.5
20260905013534 71 294 1.0 6.0 0.00 0.00 0.00 68 1007.6
20260905013042 71 320 3.0 8.0 0.00 0.00 0.00 68 1007.4
20260905012532 71 334 3.0 8.0 0.00 0.00 0.00 68 1007.6
20260905012035 71 319 2.0 8.0 0.00 0.00 0.00 67 1007.5
20260905011534 71 329 2.0 9.0 0.00 0.00 0.00 67 1007.5
20260905011031 71 328 4.0 9.0 0.00 0.00 0.00 67 1007.6
20260905010530 72 5 3.0 8.0 0.00 0.00 0.00 67 1007.6
20260905010031 72 302 3.0 11.0 0.00 0.00 0.00 66 1007.6
20260905005530 72 348 3.0 11.0 0.00 0.00 0.00 66 1007.5
20260905005130 72 292 3.0 9.0 0.00 0.00 0.00 66 1007.4
20260905004531 72 307 3.0 8.0 0.00 0.00 0.00 66 1007.4
20260905004029 72 298 3.0 9.0 0.00 0.00 0.00 65 1007.5
20260905003531 72 319 5.0 9.0 0.00 0.00 0.00 65 1007.5
20260905003030 72 308 3.0 9.0 0.00 0.00 0.00 65 1007.7
20260905002529 72 286 3.0 8.0 0.00 0.00 0.00 65 1007.6
20260905002029 72 5 3.0 9.0 0.00 0.00 0.00 65 1007.6
20260905001528 73 316 4.0 9.0 0.00 0.00 0.00 64 1007.6
20260905001029 73 329 1.0 9.0 0.00 0.00 0.00 64 1007.5
20260905000529 73 11 2.0 9.0 0.00 0.00 0.00 64 1007.3
20260905000030 73 300 4.0 11.0 0.00 0.00 0.00 64 1007.3
20260904235528 73 309 6.0 12.0 0.00 0.00 0.00 63 1007.2
20260904235027 73 302 6.0 12.0 0.00 0.00 0.00 63 1007.2
20260904234529 73 346 4.0 12.0 0.00 0.00 0.00 63 1007.1
20260904234031 73 279 7.0 12.0 0.00 0.00 0.00 63 1007.0
20260904233527 73 315 6.0 12.0 0.00 0.00 0.00 63 1007.0
20260904233027 73 355 3.0 11.0 0.00 0.00 0.00 63 1007.0
20260904232527 74 323 5.0 11.0 0.00 0.00 0.00 63 1007.0
20260904232026 74 306 3.0 9.0 0.00 0.00 0.00 63 1007.0
20260904231525 74 290 3.0 9.0 0.00 0.00 0.00 62 1007.0
20260904231026 74 310 4.0 10.0 0.00 0.00 0.00 62 1006.9
20260904230525 74 332 3.0 10.0 0.00 0.00 0.00 62 1006.9
20260904230032 74 316 4.0 10.0 0.00 0.00 0.00 62 1006.9
20260904225526 74 296 2.0 10.0 0.00 0.00 0.00 61 1006.8
20260904225026 74 335 4.0 10.0 0.00 0.00 0.00 61 1006.8
20260904224525 75 321 4.0 9.0 0.00 0.00 0.00 61 1006.8
20260904224025 75 318 3.0 8.0 0.00 0.00 0.00 61 1006.8
20260904223524 75 279 3.0 9.0 0.00 0.00 0.00 61 1006.8
20260904223026 75 297 3.0 10.0 0.00 0.00 0.00 61 1006.9
20260904222527 75 298 5.0 11.0 0.00 0.00 0.00 60 1006.9
20260904222023 75 298 5.0 13.0 0.00 0.00 0.00 60 1006.9
20260904221523 75 317 6.0 14.0 0.00 0.00 0.00 59 1006.8
20260904221024 76 5 5.0 16.0 0.00 0.00 0.00 59 1006.8
20260904220522 76 302 5.0 16.0 0.00 0.00 0.00 58 1006.9
20260904220022 76 315 5.0 15.0 0.00 0.00 0.00 57 1006.8
20260904215522 76 306 5.0 12.0 0.00 0.00 0.00 57 1006.7
20260904215021 76 304 2.0 11.0 0.00 0.00 0.00 59 1006.7
20260904214521 76 345 4.0 13.0 0.00 0.00 0.00 61 1006.7
20260904214024 76 296 3.0 16.0 0.00 0.00 0.00 62 1006.7
20260904213521 76 323 8.0 16.0 0.00 0.00 0.00 60 1006.7
20260904213021 77 317 7.0 17.0 0.00 0.00 0.00 60 1006.7
20260904212521 77 307 9.0 17.0 0.00 0.00 0.00 59 1006.7
20260904212021 77 355 7.0 14.0 0.00 0.00 0.00 60 1006.8
20260904211519 77 294 7.0 15.0 0.00 0.00 0.00 59 1006.8
20260904211022 77 313 7.0 19.0 0.00 0.00 0.00 59 1006.7
20260904210521 77 317 11.0 19.0 0.00 0.00 0.00 58 1006.7
20260904210019 77 348 10.0 15.0 0.00 0.00 0.00 57 1006.8
20260904205519 77 300 7.0 15.0 0.00 0.00 0.00 58 1006.7
20260904205020 77 325 6.0 15.0 0.00 0.00 0.00 60 1006.6
20260904204521 76 300 5.0 14.0 0.00 0.00 0.00 61 1006.7
20260904204017 76 339 5.0 11.0 0.00 0.00 0.00 64 1006.6
20260904203516 75 324 2.0 9.0 0.00 0.00 0.00 68 1006.6
20260904203021 75 328 3.0 9.0 0.00 0.00 0.00 70 1006.7
20260904202516 75 272 1.0 4.0 0.00 0.00 0.00 74 1006.7
20260904202017 74 252 1.0 4.0 0.00 0.00 0.00 73 1006.6
20260904201533 74 259 1.0 4.0 0.00 0.00 0.00 77 1006.6
20260904201015 74 188 1.0 4.0 0.00 0.00 0.00 77 1006.7
20260904200516 74 272 1.0 4.0 0.00 0.00 0.00 77 1006.8
20260904200031 74 269 0.0 6.0 0.00 0.00 0.00 78 1006.8
20260904195514 74 268 1.0 6.0 0.00 0.00 0.00 78 1006.7
20260904195015 74 192 1.0 6.0 0.00 0.00 0.00 79 1006.7
20260904194513 74 275 2.0 6.0 0.00 0.00 0.00 79 1006.7
20260904194013 73 300 1.0 3.0 0.00 0.00 0.00 80 1006.9
20260904193513 73 355 0.0 5.0 0.00 0.00 0.00 79 1006.8
20260904193013 73 355 1.0 9.0 0.00 0.00 0.00 78 1007.0
20260904192516 73 306 4.0 9.0 0.00 0.00 0.00 76 1007.0
20260904192012 73 233 2.0 4.0 0.00 0.00 0.00 77 1007.2
20260904191514 73 267 1.0 4.0 0.00 0.00 0.00 77 1007.3
20260904191011 74 213 1.0 5.0 0.00 0.00 0.00 76 1007.3
20260904190511 74 201 2.0 6.0 0.00 0.00 0.00 76 1007.2
20260904190012 75 169 2.0 6.0 0.00 0.00 0.00 76 1007.1
20260904185511 75 163 1.0 3.0 0.00 0.00 0.00 76 1007.2
20260904185011 76 162 0.0 4.0 0.00 0.00 0.00 76 1007.1
20260904184511 77 146 1.0 4.0 0.00 0.00 0.00 75 1007.0